SCP
0 0 0 0 0 0 0 0 0 0 0 0 0 0 0 0 0 0 0 0 0 0 0 0 0 0 0 0 0 0 0 0 0 0 0 0 0 1 1 1 0 0 0 0
0 0 0 0 0 0 0 0 0 0 0 0 0 0 0 0 0 0 0 0 0 0 0 0 0 0 0 0 0 0 0 0 0 0 0 0 0 0 1 1 1 0 0 0
0 0 0 0 0 0 0 0 0 0 0 0 0 0 0 0 0 0 0 0 0 0 0 0 0 0 0 0 0 0 0 0 0 0 0 0 0 0 0 1 1 1 1 1
0 0 0 0 0 0 0 0 0 0 0 0 0 0 0 0 0 0 0 0 0 0 0 0 0 0 0 0 0 0 0 0 0 0 0 0 0 0 0 0 1 1 1 1
0 0 0 0 0 0 0 0 0 0 0 0 0 0 0 0 0 0 0 0 0 0 0 0 0 0 0 0 0 0 0 0 0 0 0 0 0 0 0 0 0 1 1 1
0 0 0 0 0 0 0 0 0 0 0 0 0 0 0 0 0 0 0 0 0 0 0 0 0 0 0 0 0 0 0 0 0 0 0 0 0 0 0 0 0 0 1 1
0 0 0 0 0 0 0 0 0 0 0 0 0 0 0 0 0 0 0 0 0 0 0 0 0 0 0 0 0 0 0 0 0 0 0 0 0 0 0 0 0 0 1 1
0 0 0 0 0 0 0 0 0 0 0 0 0 0 0 0 0 0 0 0 0 0 0 0 0 0 0 0 0 0 0 0 0 0 0 0 0 0 0 0 0 0 0 0
0 0 0 0 0 0 0 0 0 0 0 0 0 0 0 0 0 0 0 0 0 0 0 0 0 0 0 0 0 0 0 0 0 0 0 0 0 0 0 0 0 0 0 0
0 0 0 0 0 0 0 0 0 0 0 0 0 0 0 0 0 0 0 0 0 0 0 0 0 0 0 0 0 0 0 0 0 0 0 0 0 0 0 0 0 0 0 0
0 0 0 0 0 0 0 0 0 0 0 0 0 0 0 0 0 0 0 0 0 0 0 0 0 0 0 0 0 0 0 0 0 0 0 0 0 0 0 0 0 0 0 0
0 0 0 0 0 0 0 0 0 0 0 0 0 0 0 0 0 0 0 0 0 0 0 0 0 0 0 0 0 0 0 0 0 0 0 0 0 0 0 0 0 0 0 0
0 0 0 0 0 0 0 0 0 0 0 0 0 0 0 0 0 0 0 0 0 0 0 0 0 0 0 0 0 0 0 0 0 0 0 0 0 0 0 0 0 0 0 0
0 0 0 0 0 0 0 0 0 0 0 0 0 0 0 0 0 0 0 0 0 0 0 0 0 0 0 0 0 0 0 0 0 0 0 0 0 0 0 0 0 0 0 0
0 0 0 0 0 0 0 0 0 0 0 0 0 0 0 0 0 0 0 0 0 0 0 0 0 0 0 0 0 0 0 0 0 0 0 0 0 0 0 0 0 0 0 0
0 0 0 0 0 0 0 0 0 0 0 0 0 0 0 0 0 0 0 0 0 0 0 0 0 0 0 0 0 0 0 0 0 0 0 0 0 0 0 0 0 0 0 0
0 0 0 0 0 0 0 0 0 0 0 0 0 0 0 0 0 0 0 0 0 0 0 0 0 0 0 0 0 0 0 0 0 0 0 0 0 0 0 0 0 0 0 0
0 0 0 0 0 0 0 0 0 0 0 0 0 0 0 0 0 0 0 0 0 0 0 0 0 0 0 0 0 0 0 0 0 0 0 0 0 0 0 0 0 0 0 0
0 0 0 0 0 0 0 0 0 0 0 0 0 0 0 0 0 0 0 0 0 0 0 0 0 0 0 0 0 0 0 0 0 0 0 0 0 0 0 0 0 0 0 0
0 0 0 0 0 0 0 0 0 0 0 0 0 0 0 0 0 0 0 0 0 0 0 0 0 0 0 0 0 0 0 0 0 0 0 0 0 0 0 0 0 0 0 0
0 0 0 0 0 0 0 0 0 0 0 0 0 0 0 0 0 0 0 0 0 0 0 0 0 0 0 0 0 0 0 0 0 0 0 0 0 0 0 0 0 0 0 0
0 0 0 0 0 0 0 0 0 0 0 0 0 0 0 0 0 0 0 0 0 0 0 0 0 0 0 0 0 0 0 0 0 0 0 0 0 0 0 0 0 0 0 0
0 0 0 0 0 0 0 0 0 0 0 0 0 0 0 0 0 0 0 0 0 0 0 0 0 0 0 0 0 0 0 0 0 0 0 0 0 0 0 0 0 0 0 0
0 0 0 0 0 0 0 0 0 0 0 0 0 0 0 0 0 0 0 0 0 0 0 0 0 0 0 0 0 0 0 0 0 0 0 0 0 0 0 0 0 0 0 0
0 0 0 0 0 0 0 0 0 0 0 0 0 0 0 0 0 0 0 0 0 0 0 0 0 0 0 0 0 0 0 0 0 0 0 0 0 0 0 0 0 0 0 0
0 0 0 0 0 0 0 0 0 0 0 0 0 0 0 0 0 0 0 0 0 0 0 0 0 0 0 0 0 0 0 0 0 0 0 0 0 0 0 0 0 0 0 0
Wind_Speed
2 3 4 7 7 4 4 3 5 5 2 2 7 11 11 8 6 7 7 6 6 7 5 4 4 4 3 4 4 4 5 4 4 3 3 3 3 2 2 2 2 3 3 4
3 4 6 4 3 3 3 4 4 4 2 3 6 11 10 8 8 8 8 8 7 5 3 3 3 3 4 4 5 5 5 4 4 3 3 2 2 2 2 2 2 3 3 4
7 4 3 3 2 3 4 6 5 4 4 3 4 9 6 5 4 5 6 6 6 6 6 4 4 4 4 5 5 5 5 4 4 3 2 2 1 1 1 2 2 3 3 3
4 3 2 3 4 5 6 4 4 3 1 4 0 6 8 4 5 5 6 5 5 5 5 4 4 4 4 5 4 4 4 4 4 4 4 4 4 4 4 2 2 2 3 4
4 2 3 5 5 5 5 2 2 2 2 3 2 3 11 3 5 6 6 6 5 5 5 5 5 5 4 4 4 4 4 3 3 4 4 4 3 3 1 2 2 2 2 3
3 2 3 4 2 4 2 2 2 3 2 4 6 5 9 4 6 4 4 5 5 4 4 4 3 3 3 3 3 3 4 3 3 3 3 4 4 3 3 3 3 3 2 2
2 2 1 1 1 1 3 4 2 3 2 7 3 5 11 6 5 5 5 5 5 4 4 3 3 3 3 3 3 3 4 3 3 3 3 3 4 4 5 4 4 3 2 3
3 4 4 3 4 4 5 6 7 6 5 5 2 7 8 4 3 3 4 3 3 3 3 4 4 4 3 3 3 3 4 3 3 3 3 3 2 3 3 4 3 4 3 4
5 4 1 2 2 5 4 4 4 4 1 3 6 6 8 3 2 2 2 2 3 3 3 3 2 3 3 3 3 4 4 3 2 2 2 2 2 2 3 3 3 3 3 3
4 3 2 1 1 1 3 4 4 4 4 5 6 5 6 4 4 3 3 3 3 2 2 2 2 2 2 2 2 2 3 3 2 2 2 2 2 3 2 2 4 4 3 3
3 3 1 0 5 6 3 3 3 3 4 5 4 8 5 6 5 4 5 4 3 3 2 2 1 1 1 1 1 2 1 1 1 2 2 2 2 2 2 2 3 3 3 3
2 3 3 5 3 2 4 5 6 5 5 4 4 9 3 2 2 2 3 2 2 2 1 1 1 1 1 2 2 2 2 2 2 2 1 2 2 1 2 2 2 2 3 3
4 4 1 3 2 1 3 4 4 3 3 4 5 9 3 2 2 2 2 1 1 0 0 0 1 1 2 2 2 2 2 2 1 1 2 2 2 2 3 3 3 2 3 3
3 3 6 8 5 4 4 5 5 5 5 6 10 10 7 5 4 4 3 2 2 1 1 1 2 2 2 2 2 2 2 1 1 1 2 2 3 3 3 3 2 2 3 3
3 4 4 5 4 3 5 6 8 10 10 10 10 10 12 8 7 6 4 3 2 2 2 3 3 2 2 2 2 2 2 1 1 1 2 3 2 2 2 2 2 2 2 3
3 3 2 4 4 4 7 9 10 12 10 12 12 15 11 7 4 5 5 4 4 5 4 4 3 2 2 3 2 2 2 1 1 1 2 2 1 2 2 3 3 2 2 2
4 4 3 4 3 2 10 11 13 9 10 10 14 15 6 5 6 6 5 4 5 5 4 4 4 4 4 3 3 3 2 1 1 1 2 2 2 2 3 3 2 3 3 2
6 5 3 2 1 9 10 4 9 10 11 12 10 9 7 7 6 4 4 4 4 4 4 4 3 3 3 2 2 1 1 1 1 2 2 2 2 3 3 2 3 3 3 3
6 7 4 4 5 11 10 4 6 8 9 8 11 11 8 5 3 4 3 3 4 4 4 4 3 2 1 1 1 1 1 1 1 2 3 3 2 3 3 3 4 3 3 3
3 5 5 4 5 10 8 3 4 3 7 5 6 8 6 2 3 6 3 3 3 2 2 1 1 0 0 1 1 1 1 1 2 3 3 3 3 3 4 4 4 3 3 4
4 4 7 7 8 12 8 3 4 5 7 2 4 5 4 5 6 4 2 2 2 2 1 0 0 0 1 1 1 1 1 2 3 3 3 3 3 4 4 4 3 3 3 3
10 8 7 6 7 12 4 5 7 7 2 1 2 3 3 4 4 3 2 2 2 2 1 1 0 1 1 0 1 1 2 3 2 2 3 4 4 3 3 3 3 3 3 3
9 10 8 11 10 4 5 6 5 2 2 2 2 3 3 3 3 3 2 2 2 2 1 1 0 1 2 1 1 2 3 2 2 2 3 3 3 3 3 3 3 2 2 3
5 3 4 6 8 6 5 4 3 3 4 3 3 3 3 3 3 3 3 2 2 2 1 1 0 1 2 2 1 2 3 2 2 3 3 3 3 3 3 2 2 3 3 3
7 6 4 6 6 4 5 5 5 3 2 2 2 2 3 3 3 2 2 2 2 2 2 1 1 2 3 3 2 2 2 2 2 3 3 3 3 3 3 3 3 3 4 4
6 7 8 9 6 6 6 4 3 3 3 4 3 3 2 3 3 2 3 2 2 2 2 2 2 2 3 3 3 3 2 2 2 3 3 3 3 3 3 3 3 5 5 7
Wind_Direction
122 101 203 213 204 202 188 207 245 253 273 245 248 262 268 264 253 249 249 243 239 241 241 220 206 194 181 179 175 177 179 178 167 168 173 179 192 192 192 199 196 194 187 181
81 235 230 209 199 209 221 238 260 285 292 249 273 274 268 254 242 235 233 235 234 241 244 222 209 191 186 185 185 185 183 181 183 185 184 182 176 186 193 197 196 196 193 191
184 231 204 175 182 199 228 220 232 259 314 312 313 297 277 269 247 249 239 231 227 222 220 211 201 199 192 189 191 189 188 188 186 170 150 128 114 106 187 208 209 209 200 194
219 246 188 179 210 194 237 222 216 236 304 290 332 292 287 270 281 262 254 239 234 231 216 205 201 204 203 200 192 187 182 181 179 168 173 176 186 200 209 206 209 211 202 196
224 198 182 206 224 196 219 205 205 218 204 292 262 241 284 289 273 267 253 237 232 225 211 208 206 205 204 194 186 182 172 172 174 175 180 185 200 210 200 192 198 204 208 202
235 221 200 210 225 196 168 71 49 50 86 266 230 200 278 249 238 264 257 242 232 223 211 211 206 187 186 183 178 173 170 177 175 178 183 192 196 196 193 204 205 211 215 212
278 254 251 150 111 63 116 110 38 346 322 251 217 211 253 252 235 225 236 237 230 218 202 203 196 189 188 187 182 175 173 182 180 183 190 200 203 198 204 209 208 210 218 222
194 251 220 196 179 179 189 162 169 200 230 272 256 232 252 259 251 240 238 227 213 212 210 210 205 193 190 196 189 176 180 189 189 192 202 206 205 207 215 213 209 213 221 224
186 234 255 210 186 158 165 198 186 144 122 275 263 269 295 285 287 280 269 246 232 229 223 214 205 195 187 189 197 190 186 187 193 197 198 206 211 219 224 220 213 218 225 222
164 214 250 272 91 262 172 154 130 155 182 250 273 259 251 261 259 265 268 250 246 248 241 221 206 197 192 188 188 174 173 182 190 190 199 214 222 224 229 221 217 221 225 224
148 168 239 185 198 197 166 177 176 168 180 188 257 265 232 222 231 233 244 247 236 226 231 231 219 184 169 158 161 169 171 177 192 201 208 219 233 235 237 238 236 230 226 222
161 146 221 236 234 211 192 192 174 181 224 206 227 265 279 234 253 234 244 261 269 239 234 215 176 147 154 178 188 191 195 196 219 223 212 227 246 248 252 256 257 254 241 233
151 140 113 322 304 281 232 221 204 189 169 192 211 259 311 352 330 299 279 291 297 252 216 175 160 180 198 206 208 208 214 220 220 213 207 223 240 241 252 262 260 253 249 243
141 171 190 207 222 194 229 236 201 175 201 224 228 251 283 298 292 287 279 268 252 240 217 215 222 223 221 217 213 218 234 234 227 215 215 229 244 250 256 265 264 258 251 244
137 208 225 244 256 212 225 230 213 211 214 221 242 244 261 268 264 265 263 261 267 265 250 232 232 235 233 233 236 234 239 238 228 225 237 244 255 268 278 276 272 267 264 259
152 193 199 259 259 254 261 243 227 230 230 238 256 263 258 267 268 269 267 254 252 248 244 242 237 236 237 232 233 241 250 253 230 237 257 269 272 280 281 282 283 279 274 273
170 160 178 246 274 318 261 225 210 215 213 208 235 250 260 261 261 256 258 256 255 256 252 239 232 230 232 227 214 220 236 243 233 254 266 274 273 271 274 279 284 276 270 271
168 159 172 208 92 239 245 200 199 214 232 222 236 254 250 245 256 264 251 242 258 266 262 256 246 237 234 216 202 208 204 208 237 261 270 271 269 272 280 278 273 275 276 264
183 167 169 175 222 269 282 238 187 203 249 229 234 253 261 264 282 284 263 240 246 252 251 247 241 229 221 207 194 175 190 211 247 268 274 274 269 270 271 267 269 273 271 269
181 172 171 179 202 239 250 223 178 152 264 238 216 241 254 238 249 267 274 262 263 269 262 259 265 186 176 242 165 166 217 233 259 271 278 281 269 261 262 265 272 275 268 267
169 191 203 207 227 255 254 221 139 181 247 248 215 229 224 219 234 265 304 301 294 308 317 348 100 148 245 234 160 191 232 257 274 287 292 289 281 271 265 269 273 273 273 274
182 185 199 187 215 249 218 148 185 219 247 233 237 232 227 239 261 282 291 292 306 319 330 356 21 326 330 3 165 228 259 282 300 297 289 288 288 282 276 271 276 274 267 270
202 196 192 198 216 236 175 196 217 214 233 247 243 248 231 244 257 271 272 274 290 284 289 311 230 313 330 337 204 244 284 307 305 295 285 286 293 289 280 271 274 278 267 263
236 207 198 237 252 251 244 243 251 232 233 247 245 247 231 239 249 261 266 275 287 295 294 312 318 297 300 314 314 287 303 310 294 285 290 291 290 291 288 279 267 263 259 259
210 180 201 241 258 279 266 240 239 242 256 274 271 249 239 239 251 254 267 273 276 292 314 320 279 282 297 314 315 318 316 302 283 282 284 286 279 277 279 277 268 268 264 255
194 188 195 225 220 217 245 241 232 222 235 240 247 264 256 232 243 257 261 269 273 290 316 316 302 294 299 304 302 307 300 276 263 276 280 278 279 280 277 282 297 290 288 291